FW7688 Weather Reports


Display with metric or nautical units.
time (UTC)temp
F
wind
direction
speed
MPH
gust
MPH
rain 1hr
in
rain 24hr
in
rain mn
in
humidity
%
barometer
mb
20260509023016 45 234 0.0 0.0 0.00 0.00 0.00 82 1014.5
20260509021515 45 235 0.0 0.0 0.00 0.00 0.00 82 1014.6
20260509020014 44 235 0.0 0.0 0.00 0.00 0.00 81 1014.4
20260509014530 44 235 0.0 0.0 0.00 0.00 0.00 78 1014.4
20260509013010 45 235 0.0 0.0 0.00 0.00 0.00 79 1014.2
20260509011509 46 235 0.0 0.0 0.00 0.00 0.00 75 1014.1
20260509010006 47 235 0.0 0.0 0.00 0.00 0.00 73 1013.8
20260509004504 47 235 0.0 0.0 0.00 0.00 0.00 71 1013.5
20260509003017 49 235 0.0 0.0 0.00 0.00 0.00 68 1013.4
20260509001618 50 235 0.0 0.0 0.00 0.00 0.00 65 1013.3
20260509000059 52 235 0.0 0.0 0.00 0.00 0.00 59 1013.2
20260508234559 53 235 0.0 0.0 0.00 0.00 0.00 60 1013.0
20260508234507 53 235 0.0 0.0 0.00 0.00 0.00 61 1013.0
20260508233125 54 235 0.0 0.0 0.00 0.00 0.00 58 1013.0
20260508231629 54 235 0.0 0.0 0.00 0.00 0.00 55 1012.8
20260508230059 55 235 0.0 0.0 0.00 0.00 0.00 58 1012.5
20260508224615 55 235 0.0 0.0 0.00 0.00 0.00 54 1012.4
20260508223053 55 169 0.0 1.0 0.00 0.00 0.00 54 1012.2
20260508223024 55 169 0.0 1.0 0.00 0.00 0.00 55 1012.2
20260508221553 55 159 0.0 0.0 0.00 0.00 0.00 55 1012.1
20260508220049 56 43 0.0 0.0 0.00 0.00 0.00 55 1012.1
20260508214548 55 81 0.0 0.0 0.00 0.00 0.00 57 1012.2
20260508211546 55 81 0.0 0.0 0.00 0.00 0.00 60 1012.2
20260508210047 54 109 0.0 2.0 0.00 0.00 0.00 62 1012.2
20260508204550 54 156 0.0 0.0 0.00 0.00 0.00 61 1012.2
20260508203050 55 61 0.0 2.0 0.00 0.00 0.00 65 1012.1
20260508201541 55 270 0.0 2.0 0.00 0.00 0.00 61 1012.0
20260508201505 55 270 0.0 6.0 0.00 0.00 0.00 61 1012.0
20260508200048 54 94 0.0 3.0 0.00 0.00 0.00 66 1011.9
20260508194537 53 266 2.0 6.0 0.00 0.00 0.00 67 1012.3
20260508193036 51 224 1.0 4.0 0.00 0.00 0.00 69 1012.5
20260508191541 51 257 0.0 3.0 0.00 0.00 0.00 72 1012.6
20260508190109 50 244 0.0 3.0 0.00 0.00 0.00 76 1012.7
20260508184536 50 278 0.0 5.0 0.00 0.00 0.00 73 1013.1
20260508183031 53 262 1.0 6.0 0.00 0.00 0.00 64 1012.8
20260508181531 55 227 0.0 4.0 0.00 0.00 0.00 58 1012.3
20260508180020 56 229 2.0 6.0 0.00 0.00 0.00 54 1012.1
20260508174507 55 238 1.0 4.0 0.00 0.00 0.00 59 1012.2
20260508173006 52 238 0.0 2.0 0.00 0.00 0.00 62 1012.8
20260508171559 53 258 0.0 7.0 0.00 0.00 0.00 59 1012.8
20260508170058 54 214 1.0 4.0 0.00 0.00 0.00 57 1012.8
20260508164601 54 255 0.0 3.0 0.00 0.00 0.00 55 1012.6
20260508163118 55 273 2.0 5.0 0.00 0.00 0.00 54 1012.6
20260508161552 54 274 3.0 7.0 0.00 0.00 0.00 55 1012.7
20260508161505 54 206 1.0 5.0 0.00 0.00 0.00 56 1012.8
20260508160112 55 224 1.0 3.0 0.00 0.00 0.00 53 1012.8
20260508154513 55 233 0.0 2.0 0.00 0.00 0.00 53 1012.8
20260508153042 55 283 2.0 4.0 0.00 0.00 0.00 55 1012.9
20260508151540 54 229 1.0 5.0 0.00 0.00 0.00 57 1012.6
20260508150055 54 83 0.0 6.0 0.00 0.00 0.00 60 1013.0
20260508144520 53 207 0.0 1.0 0.00 0.00 0.00 61 1013.2
20260508141520 53 203 2.0 4.0 0.00 0.00 0.00 62 1013.2
20260508140021 54 329 0.0 3.0 0.00 0.00 0.00 62 1013.0
20260508134511 53 247 0.0 3.0 0.00 0.00 0.00 67 1013.1
20260508133010 51 221 0.0 6.0 0.00 0.00 0.00 70 1013.3
20260508131503 52 231 1.0 3.0 0.00 0.00 0.00 68 1013.4
20260508130133 51 226 1.0 3.0 0.00 0.00 0.00 69 1013.2
20260508124555 50 221 0.0 2.0 0.00 0.00 0.00 74 1013.4
20260508123107 49 223 0.0 3.0 0.00 0.00 0.00 76 1013.6
20260508121557 48 149 0.0 0.0 0.00 0.00 0.00 76 1013.6
20260508120052 47 110 0.0 0.0 0.00 0.00 0.00 79 1013.6
20260508114537 46 231 0.0 0.0 0.00 0.00 0.00 80 1013.5
20260508113039 45 278 0.0 0.0 0.00 0.00 0.00 82 1013.3
20260508111524 43 241 0.0 0.0 0.00 0.00 0.00 84 1013.3
20260508110021 42 250 0.0 0.0 0.00 0.00 0.00 89 1013.1
20260508104521 39 248 0.0 0.0 0.00 0.00 0.00 91 1013.1
20260508103020 39 248 0.0 0.0 0.00 0.00 0.00 90 1013.1
20260508101514 39 248 0.0 0.0 0.00 0.00 0.00 89 1012.7
20260508100008 39 248 0.0 0.0 0.00 0.00 0.00 88 1012.6
20260508094513 39 248 0.0 0.0 0.00 0.00 0.00 87 1012.6
20260508093101 40 248 0.0 0.0 0.00 0.00 0.00 86 1012.5
20260508091608 41 248 0.0 0.0 0.00 0.00 0.00 85 1012.3
20260508090123 42 248 0.0 0.0 0.00 0.00 0.00 85 1012.2
20260508084544 42 248 0.0 0.0 0.00 0.01 0.00 83 1012.1
20260508083041 43 248 0.0 0.0 0.00 0.01 0.00 82 1012.3
20260508081605 44 248 0.0 0.0 0.00 0.01 0.00 82 1012.3
20260508080043 44 241 0.0 0.0 0.00 0.01 0.00 80 1012.4
20260508073040 44 250 0.0 0.0 0.00 0.01 0.00 79 1012.4
20260508071505 44 250 0.0 0.0 0.00 0.01 0.00 77 1012.3
20260508070104 45 250 0.0 0.0 0.00 0.01 0.00 75 1011.8
20260508064555 45 226 0.0 0.0 0.00 0.06 0.00 73 1012.3
20260508063054 45 155 0.0 0.0 0.00 0.06 0.00 69 1012.3
20260508061551 45 269 0.0 0.0 0.00 0.06 0.00 73 1012.3
20260508060052 45 259 0.0 0.0 0.00 0.06 0.00 70 1012.1
20260508054547 46 264 0.0 0.0 0.00 0.06 0.00 65 1011.4
20260508053108 46 259 0.0 0.0 0.00 0.06 0.00 62 1011.3
20260508051539 46 240 0.0 0.0 0.00 0.06 0.00 64 1011.3
20260508050035 46 239 0.0 0.0 0.00 0.06 0.00 59 1011.2
20260508044533 46 28 0.0 0.0 0.00 0.06 0.00 55 1011.2
20260508043051 46 51 0.0 0.0 0.00 0.06 0.00 55 1010.8
20260508041601 46 284 0.0 0.0 0.00 0.06 0.00 61 1010.9
20260508040028 45 83 0.0 1.0 0.00 0.06 0.00 57 1010.9
20260508034523 45 81 0.0 1.0 0.00 0.06 0.06 60 1011.0
20260508033023 45 37 0.0 0.0 0.00 0.06 0.06 59 1011.2
20260508031518 44 82 0.0 1.0 0.00 0.06 0.06 66 1011.1
20260508030024 44 100 0.0 0.0 0.00 0.06 0.06 74 1011.1
20260508024607 43 116 0.0 0.0 0.00 0.06 0.06 76 1011.2